Regional Weather Roundup
Issued by NWS Cleveland, OH

Home | Current Version | Previous Version | Graphics & Text | Print | Product List | Glossary On
Versions: 1 2 3 4 5 6 7 8 9 10 11 12 13 14 15 16 17 18 19 20 21 22 23 24 25 26 27 28 29 30 31 32 33 34 35 36 37 38 39 40 41 42 43 44 45 46 47 48 49 50
000
ASUS41 KCLE 210602
RWRCLE
OHIO REGIONAL WEATHER ROUNDUP
NATIONAL WEATHER SERVICE CLEVELAND, OH
200 AM EDT TUE APR 21 2015

NOTE: "FAIR" INDICATES FEW OR NO CLOUDS BELOW 12,000 FEET WITH NO
SIGNIFICANT WEATHER AND/OR OBSTRUCTIONS TO VISIBILITY.

OHZ001>008-015>018-024>027-034-035-043-044-210700-
   NORTHWEST OHIO

CITY           SKY/WX    TMP DP  RH WIND       PRES   REMARKS
DEFIANCE       FAIR      44  34  67 SW8       29.67R
FINDLAY        MOCLDY    46  35  65 SW16      29.68R
TOLEDO EXPRESS FAIR      44  31  60 SW17G24   29.64R
TOLEDO EXEC    FAIR      45  30  55 W16       29.65R
LIMA           CLOUDY    47  35  63 SW18G28   29.70R
$$

OHZ009>014-019>023-028>033-038-089-210700-
   NORTHEAST OHIO

CITY           SKY/WX    TMP DP  RH WIND       PRES   REMARKS
CLE-HOPKINS    FAIR      45  34  65 SW15G23   29.67S
CLE-LAKEFRONT  CLOUDY    48  35  60 SW21G26   29.63F
CUY CO. ARPT   NOT AVBL
LORAIN-ELYRIA  MOCLDY    45  34  65 W14G26    29.66R
ASHTABULA      FAIR      46  35  65 W12       29.64R
AKRON-CANTON   CLOUDY    47  32  56 W16       29.68R
WOOSTER        LGT RAIN  45  33  63 W15       29.69R
MANSFIELD      CLOUDY    44  34  67 SW13      29.69R
YOUNGSTOWN     FAIR      44  35  70 SW10      29.65S
$$

OHZ042-051>053-060>062-070>072-077>081-210700-
  SOUTHWEST OHIO

CITY           SKY/WX    TMP DP  RH WIND       PRES   REMARKS
CINC-COVINGTON CLOUDY    47  35  63 SW7       29.81R
CINC-LUNKEN    MOCLDY    48  35  60 SW10      29.82R
HAMILTON       MOCLDY    47  38  71 SW7       29.81R
DAYTON         FAIR      45  36  70 SW14      29.76S
WRIGHT-PAT AFB NOT AVBL
DAYTON GENERAL FAIR      46  35  65 W10       29.77R
WILMINGTON     CLOUDY    46  34  62 W9        29.78R
$$

OHZ036-037-039>041-045>050-054>059-063>069-073>076-082>088-210700-
  CENTRAL AND SOUTHEAST OHIO

CITY           SKY/WX    TMP DP  RH WIND       PRES   REMARKS
COLUMBUS       CLOUDY    47  36  65 W9        29.75R
OSU AIRPORT    CLOUDY    46  34  62 W8        29.75R
BOLTON FIELD   NOT AVBL
RICKENBACK AFB NOT AVBL
NEWARK         CLOUDY    47  34  60 W9        29.75R
MARION         MOCLDY    45  34  65 W13       29.72R
LANCASTER      MOCLDY    47  36  65 W8        29.77R
ZANESVILLE     MOCLDY    48  35  60 W15G21    29.75R
NEW PHILLY     CLOUDY    50  35  56 SW10G17   29.73R
$$


USA.gov is the U.S. government's official web portal to all federal, state and local government web resources and services.